[[{"header":{"parameterUnit":"m.s-1","parameterCategory":1,"la1":30.2991,"la2":30.254,"lo1":-89.0895,"lo2":-89.0444,"dy":0.0017,"dx":0.0017,"nx":28,"ny":28,"refTime":"2024-05-05T03:00:00:Z","depth":0,"parameterNumber":2,"parameterNumberName":"U-component_of_WINDS"},"data":[0,0,0,0,0,0,0,0,0,0,0,0,0,0,0,0,0,0,0,0,0,0,0,0,0,0,0,0,0,0,0,0,0,0,0,0,0,0,0,0,0,0,0,0,0,0,0,0,0,0,0,0,0,0,0,0,0,0,-2.5405,-2.5403,0,-2.5226,-2.5224,-2.5222,-2.5105,-2.5104,-2.5103,-2.5102,-2.4915,-2.4911,-2.4906,0,0,0,0,0,0,0,0,0,0,0,0,0,-2.564,-2.5637,-2.5405,-2.5403,-2.5401,-2.5226,-2.5224,-2.5221,-2.5105,-2.5104,-2.5103,-2.5102,-2.4916,-2.4911,-2.4906,0,0,0,0,0,0,0,0,0,0,0,0,0,-2.5507,-2.5635,-2.5405,-2.5321,-2.5312,-2.5227,-2.5224,-2.5221,-2.5105,-2.5104,-2.5103,-2.5102,-2.4918,-2.4912,-2.4905,-2.4888,0,0,-2.4886,-2.4883,0,0,0,0,0,0,0,0,-2.5515,-2.5499,-2.5336,-2.5327,-2.5316,-2.5187,-2.5238,-2.5109,-2.5105,-2.5183,-2.5102,-2.5101,-2.5006,-2.4992,-2.4961,-2.4879,-2.4871,-2.4885,-2.4881,-2.4878,-2.4877,0,0,0,0,0,0,0,-2.5524,-2.5506,-2.5334,-2.5334,-2.5322,-2.5291,-2.5271,-2.5213,-2.5103,-2.5177,-2.5168,-2.5148,-2.5,-2.4967,-2.4956,-2.4869,-2.4885,-2.488,-2.4876,-2.4873,-2.4761,-2.4762,0,0,0,0,0,0,-2.5548,-2.5514,-2.534,-2.5329,-2.5415,-2.5288,-2.5265,-2.5229,-2.5103,-2.5083,-2.5149,-2.5144,-2.4979,-2.4963,-2.4949,-2.4919,-2.4879,-2.4872,-2.4869,-2.476,-2.4762,-2.4763,0,0,0,0,0,0,-2.5553,-2.5533,-2.5347,-2.5419,-2.5393,-2.5285,-2.5246,-2.5226,-2.5193,-2.5083,-2.5062,-2.5136,-2.4977,-2.4958,-2.4904,-2.4911,-2.487,-2.4864,-2.4759,-2.4761,-2.4762,-2.486,0,0,0,0,0,0,-2.556,-2.5536,-2.553,-2.542,-2.539,-2.5307,-2.5246,-2.5224,-2.5183,-2.5174,-2.5065,-2.5046,-2.4975,-2.4914,-2.4898,-2.4901,-2.4859,-2.4758,-2.476,-2.4762,-2.4856,-2.4865,-2.4872,0,0,0,0,0,-2.5569,-2.5564,-2.553,-2.5509,-2.538,-2.5308,-2.529,-2.521,-2.5184,-2.5176,-2.5105,-2.505,-2.4913,-2.491,-2.489,-2.4892,-2.4757,-2.476,-2.4761,-2.4852,-2.4863,-2.4872,0,0,0,0,0,0,-2.5676,-2.5548,-2.5509,-2.5468,-2.54,-2.5288,-2.5276,-2.5224,-2.5161,-2.5154,-2.5056,-2.5032,-2.4988,-2.4934,-2.4933,-2.4867,-2.4828,-2.4827,-2.4904,-2.4913,-2.4922,-2.4935,-2.4853,0,0,0,0,0,-2.5695,-2.5649,-2.5539,-2.5514,-2.5481,-2.5385,-2.535,-2.5294,-2.5219,-2.5189,-2.5114,-2.5042,-2.4982,-2.4945,-2.4884,-2.4847,-2.4821,-2.4839,-2.4847,-2.4854,-2.4854,-2.4828,-2.4834,-2.4769,-2.4769,-2.4769,0,0,-2.5734,-2.5658,-2.5635,-2.5533,-2.5474,-2.5426,-2.5361,-2.5314,-2.5277,-2.5181,-2.5126,-2.5068,-2.4981,-2.4936,-2.4912,-2.4889,-2.4866,-2.4857,-2.4864,-2.4858,-2.4831,-2.4837,-2.4843,-2.477,-2.477,-2.477,0,0,-2.578,-2.5719,-2.569,-2.5632,-2.5543,-2.5478,-2.5472,-2.5367,-2.5325,-2.5269,-2.5195,-2.5149,-2.5049,-2.4989,-2.4946,-2.4968,-2.4914,-2.4951,-2.4993,-2.497,-2.4975,-2.4979,-2.4985,-2.4989,-2.495,-2.4951,-2.4951,0,-2.5839,-2.5766,-2.5682,-2.5639,-2.5595,-2.5507,-2.5476,-2.5423,-2.5319,-2.529,-2.5267,-2.5138,-2.5073,-2.5011,-2.5017,-2.4985,-2.4972,-2.4962,-2.4981,-2.4984,-2.4987,-2.4991,-2.4994,-2.4955,-2.4955,-2.4954,-2.4954,0,-2.5842,-2.5792,-2.5779,-2.5682,-2.5637,-2.56,-2.5509,-2.5473,-2.542,-2.5358,-2.53,-2.5219,-2.5139,-2.512,-2.5068,-2.5051,-2.5039,-2.5,-2.4959,-2.4999,-2.5002,-2.5003,-2.4963,-2.4961,-2.4959,-2.4958,0,0,-2.5951,-2.5806,-2.5803,-2.5756,-2.5651,-2.561,-2.5569,-2.5492,-2.5462,-2.5393,-2.5354,-2.5271,-2.5233,-2.5184,-2.5124,-2.5104,-2.5125,-2.5066,-2.5063,-2.5079,-2.5098,-2.5127,-2.5131,-2.5088,-2.5088,-2.5088,-2.5104,0,-2.598,-2.5902,-2.5824,-2.5774,-2.5726,-2.5641,-2.5604,-2.5534,-2.5475,-2.5423,-2.5356,-2.5298,-2.5254,-2.5224,-2.52,-2.5128,-2.5127,-2.5125,-2.5049,-2.5048,-2.5073,-2.5133,-2.5164,-2.5183,-2.5105,-2.5105,-2.5105,0,-2.6004,-2.5939,-2.5884,-2.5782,-2.5758,-2.5727,-2.565,-2.5603,-2.5521,-2.5479,-2.5424,-2.536,-2.531,-2.5275,-2.5203,-2.5204,-2.5168,-2.5127,-2.5126,-2.5115,-2.5079,-2.5122,-2.5187,-2.519,-2.5107,-2.5106,-2.5106,0,-2.6087,-2.5986,-2.5939,-2.5902,-2.5783,-2.5762,-2.5711,-2.5628,-2.5587,-2.5518,-2.549,-2.5416,-2.5376,-2.5319,-2.5237,-2.5219,-2.5173,-2.5132,-2.5134,-2.5136,-2.5128,-2.5129,-2.5187,-2.5107,-2.5107,-2.5107,-2.5107,0,-2.6128,-2.6097,-2.5975,-2.5947,-2.5909,-2.5819,-2.5783,-2.5724,-2.5651,-2.5608,-2.5529,-2.549,-2.5384,-2.5331,-2.5266,-2.5216,-2.5198,-2.5161,-2.5144,-2.5167,-2.5172,-2.5142,-2.5138,-2.5108,-2.5107,-2.5107,-2.5107,0,-2.6215,-2.6132,-2.6075,-2.5966,-2.5938,-2.5915,-2.582,-2.5788,-2.5723,-2.567,-2.5652,-2.555,-2.5483,-2.5396,-2.5302,-2.5258,-2.5215,-2.5189,-2.5243,-2.5233,-2.524,-2.524,-2.528,-2.528,-2.5202,-2.5203,-2.5203,0,-2.6246,-2.622,-2.6108,-2.6074,-2.6026,-2.5972,-2.5929,-2.5838,-2.5797,-2.5701,-2.568,-2.5608,-2.5545,-2.5443,-2.536,-2.5287,-2.5258,-2.5276,-2.5246,-2.527,-2.5256,-2.5258,-2.5254,-2.5284,-2.5285,-2.5286,-2.5287,0,-2.6309,-2.6269,-2.6211,-2.6138,-2.6089,-2.6027,-2.5961,-2.5938,-2.5833,-2.5789,-2.5721,-2.5673,-2.5577,-2.5506,-2.5422,-2.5367,-2.5309,-2.5298,-2.5294,-2.5317,-2.5349,-2.5331,-2.5262,-2.5297,-2.5296,-2.5295,-2.5295,-2.5294,-2.6367,-2.634,-2.6257,-2.6194,-2.6135,-2.6075,-2.6039,-2.597,-2.5912,-2.5828,-2.5778,-2.5711,-2.5628,-2.5509,-2.5456,-2.5401,-2.5379,-2.5375,-2.5373,-2.5373,-2.538,-2.5359,-2.5386,-2.5386,-2.5385,-2.5385,-2.5385,0,-2.6425,-2.6368,-2.6311,-2.6222,-2.6172,-2.6123,-2.6047,-2.6008,-2.5951,-2.5879,-2.5819,-2.574,-2.567,-2.5581,-2.5504,-2.5477,-2.5448,-2.546,-2.546,-2.5448,-2.5405,-2.5415,-2.5484,-2.5484,-2.5484,-2.5484,-2.5484,-2.5484,-2.645,-2.6401,-2.6351,-2.627,-2.6211,-2.6147,-2.6108,-2.6051,-2.5993,-2.5908,-2.585,-2.5793,-2.5713,-2.5629,-2.5562,-2.5537,-2.5512,-2.5532,-2.5499,-2.546,-2.5451,-2.5443,-2.5452,-2.5527,-2.5527,-2.5546,-2.5546,-2.5546]},{"header":{"parameterUnit":"m.s-1","parameterCategory":1,"la1":30.2991,"la2":30.254,"lo1":-89.0895,"lo2":-89.0444,"dy":0.0017,"dx":0.0017,"nx":28,"ny":28,"refTime":"2024-05-05T03:00:00:Z","depth":0,"parameterNumber":3,"parameterNumberName":"V-component_of_WINDS"},"data":[0,0,0,0,0,0,0,0,0,0,0,0,0,0,0,0,0,0,0,0,0,0,0,0,0,0,0,0,0,0,0,0,0,0,0,0,0,0,0,0,0,0,0,0,0,0,0,0,0,0,0,0,0,0,0,0,0,0,4.127,4.127,0,4.1233,4.1233,4.1232,4.115,4.1148,4.1146,4.1145,4.1108,4.1108,4.1109,0,0,0,0,0,0,0,0,0,0,0,0,0,4.127,4.1271,4.127,4.127,4.1269,4.1233,4.1233,4.1232,4.115,4.1148,4.1146,4.1144,4.1108,4.1108,4.1109,0,0,0,0,0,0,0,0,0,0,0,0,0,4.1255,4.1271,4.127,4.1224,4.1219,4.1233,4.1233,4.1232,4.115,4.1148,4.1145,4.1143,4.1107,4.1108,4.1109,4.1165,0,0,4.1112,4.1112,0,0,0,0,0,0,0,0,4.1256,4.1256,4.1231,4.1227,4.1222,4.1193,4.1219,4.121,4.1151,4.1177,4.1145,4.1142,4.1138,4.1137,4.1135,4.1164,4.1162,4.1112,4.1113,4.1113,4.1113,0,0,0,0,0,0,0,4.1258,4.1257,4.1255,4.1231,4.1225,4.1205,4.12,4.1217,4.1172,4.1174,4.1168,4.1165,4.1135,4.1135,4.1134,4.1162,4.1112,4.1113,4.1113,4.1114,4.1233,4.1235,0,0,0,0,0,0,4.1265,4.1258,4.1257,4.1254,4.1233,4.1207,4.1202,4.1205,4.1172,4.1164,4.1167,4.1161,4.1134,4.1133,4.1132,4.1195,4.1113,4.1114,4.1114,4.123,4.1233,4.1236,0,0,0,0,0,0,4.1265,4.1266,4.1258,4.1255,4.1252,4.121,4.1214,4.1206,4.1205,4.1166,4.1158,4.1174,4.1132,4.1131,4.1157,4.1192,4.1114,4.1115,4.1227,4.1231,4.1235,4.1321,0,0,0,0,0,0,4.1266,4.1266,4.1287,4.1256,4.1253,4.1284,4.1217,4.1207,4.1206,4.1198,4.1171,4.1164,4.113,4.1156,4.1158,4.1192,4.1116,4.1224,4.1229,4.1233,4.1315,4.1328,4.1338,0,0,0,0,0,4.1266,4.1314,4.1289,4.1289,4.1278,4.1286,4.1285,4.1244,4.121,4.123,4.1205,4.1165,4.1188,4.116,4.1161,4.1196,4.1221,4.1227,4.1233,4.131,4.1325,4.1338,0,0,0,0,0,0,4.1351,4.1309,4.1281,4.1319,4.1307,4.1272,4.1297,4.1262,4.126,4.1252,4.1203,4.1197,4.123,4.1216,4.1185,4.1248,4.1198,4.1205,4.1256,4.127,4.1282,4.1284,4.1116,0,0,0,0,0,4.1375,4.1385,4.1347,4.1385,4.138,4.134,4.1342,4.1312,4.1298,4.1292,4.1269,4.1257,4.1261,4.1265,4.1267,4.1313,4.1305,4.1337,4.1349,4.1358,4.1365,4.1386,4.14,4.1256,4.1256,4.1255,0,0,4.1423,4.1401,4.1411,4.1402,4.1388,4.14,4.1336,4.1352,4.136,4.1294,4.1317,4.1301,4.1283,4.1319,4.1334,4.1308,4.1403,4.1366,4.1374,4.1375,4.1394,4.1408,4.142,4.126,4.1259,4.1258,0,0,4.1517,4.1501,4.153,4.1518,4.1499,4.1472,4.1479,4.1449,4.1435,4.1458,4.1409,4.1418,4.1427,4.1416,4.1412,4.15,4.1463,4.1502,4.1563,4.1585,4.1597,4.1606,4.1637,4.1649,4.1509,4.1509,4.1509,0,4.1579,4.1594,4.155,4.1568,4.1565,4.1506,4.1535,4.1526,4.1509,4.1508,4.1479,4.1488,4.1472,4.1505,4.1526,4.1525,4.1531,4.1505,4.1599,4.1608,4.1616,4.1645,4.1657,4.1514,4.1513,4.1513,4.1512,0,4.1672,4.1683,4.1709,4.1693,4.1693,4.1717,4.1676,4.1682,4.1651,4.1627,4.165,4.1629,4.1625,4.1631,4.1602,4.1659,4.1643,4.1608,4.1556,4.1636,4.1662,4.1673,4.1521,4.1519,4.1518,4.1516,0,0,4.1818,4.1777,4.1787,4.1778,4.1752,4.176,4.1781,4.1777,4.1782,4.1772,4.1788,4.1796,4.1762,4.1758,4.1727,4.1746,4.1817,4.1708,4.1706,4.1728,4.1877,4.1904,4.1917,4.1792,4.1794,4.1795,4.1878,0,4.1905,4.1938,4.1898,4.1939,4.1949,4.1893,4.191,4.1896,4.1874,4.1879,4.1855,4.1861,4.1816,4.1813,4.183,4.1805,4.1846,4.1798,4.1805,4.1806,4.1811,4.1931,4.1959,4.2039,4.1888,4.189,4.1891,0,4.2011,4.2005,4.2047,4.2018,4.202,4.2037,4.2029,4.2035,4.2017,4.2,4.1994,4.1957,4.1975,4.1926,4.1949,4.1918,4.1918,4.1907,4.1909,4.1907,4.1853,4.1932,4.2063,4.2075,4.1907,4.1906,4.1904,0,4.2113,4.2116,4.2141,4.2135,4.2102,4.2114,4.2101,4.2081,4.2081,4.2074,4.2073,4.2069,4.2067,4.2064,4.2027,4.1995,4.2055,4.2003,4.204,4.2041,4.2055,4.2055,4.2187,4.2057,4.2057,4.2057,4.2056,0,4.2214,4.2242,4.2186,4.2201,4.223,4.2184,4.2215,4.2195,4.2178,4.2188,4.214,4.2151,4.2101,4.2106,4.2077,4.2101,4.21,4.2086,4.2078,4.209,4.2092,4.209,4.2083,4.206,4.2059,4.2058,4.2058,0,4.2333,4.2296,4.232,4.2285,4.2277,4.23,4.2271,4.2284,4.2258,4.2272,4.2273,4.2233,4.2236,4.2199,4.2196,4.2176,4.2213,4.2195,4.2218,4.2213,4.2252,4.2249,4.2387,4.2403,4.2264,4.2265,4.2266,0,4.2399,4.2419,4.2387,4.239,4.2379,4.2385,4.2384,4.2339,4.234,4.2321,4.2336,4.2336,4.2333,4.2342,4.2313,4.231,4.2291,4.234,4.2291,4.2302,4.2291,4.229,4.2291,4.235,4.2352,4.2354,4.2355,0,4.2521,4.2502,4.2502,4.2496,4.2496,4.2489,4.2479,4.2485,4.2436,4.244,4.2443,4.2441,4.2437,4.2437,4.2428,4.2414,4.2376,4.2371,4.2379,4.2391,4.2404,4.2397,4.2246,4.2368,4.2366,4.2365,4.2365,4.2364,4.2615,4.2629,4.2608,4.261,4.2598,4.2589,4.2599,4.2575,4.2576,4.2569,4.2543,4.255,4.2531,4.2516,4.2505,4.251,4.2486,4.2499,4.2502,4.2505,4.2512,4.2403,4.2508,4.2508,4.2507,4.2507,4.2507,0,4.2733,4.2717,4.2719,4.2706,4.2707,4.2671,4.2658,4.2662,4.2669,4.2654,4.2652,4.2655,4.2655,4.2625,4.2621,4.2631,4.2613,4.2631,4.263,4.2627,4.2534,4.2527,4.2645,4.2645,4.2645,4.2645,4.2645,4.2645,4.2795,4.2817,4.2796,4.2811,4.2794,4.2801,4.2797,4.2788,4.2776,4.2782,4.2781,4.2761,4.274,4.2734,4.2732,4.2723,4.2724,4.2747,4.2733,4.2647,4.2633,4.2621,4.2613,4.2748,4.2748,4.2825,4.2825,4.2826]}]]